Date String (YYYY-MM-DD hh:mm:ss) UTC,Instrument flags,Ambient pressure (hPa),Sample flow (lpm),Bypass flow (lpm),Sample temperature (°C),Ambient temperature (°C),ASC tube jacket temperature (°C),LED temperature (°C),Box temperature (°C),Sample RH (%),Span deviation,Mass concentration (μg/m³),Mass concentration (μg/m³),Mass concentration (μg/m³)
DateTimeUTC,F1_M11,P_M11,Q1_M11,Q2_M11,T1_M11,T2_M11,T3_M11,T4_M11,T5_M11,U1_M11,ZSPAN_M11,X0_M11,X2_M11,X1_M11
2022-03-10 19:00:00,,0823.1,5.02,0.00,22.5,22.0,00.0,31.4,24.4,05.5,0000.0,0008.76,0006.75,0006.52
2022-03-10 19:01:00,,0823.1,5.00,0.00,22.6,22.0,00.0,31.4,24.4,05.4,0000.0,0008.84,0006.78,0006.53
2022-03-10 19:02:00,,0823.1,5.00,0.00,22.6,22.0,00.0,31.4,24.4,05.4,0000.0,0008.82,0006.79,0006.54
2022-03-10 19:03:00,,0823.2,5.00,0.00,22.6,22.0,00.0,31.4,24.4,05.5,0000.0,0008.85,0006.81,0006.56
2022-03-10 19:04:00,,0823.2,5.00,0.00,22.6,22.0,00.0,31.4,24.4,05.3,0000.0,0008.92,0006.84,0006.58
2022-03-10 19:05:00,,0823.2,5.02,0.00,22.6,22.0,00.0,31.4,24.5,05.4,0000.0,0008.97,0006.88,0006.61
2022-03-10 19:06:00,,0823.2,5.00,0.00,22.6,22.0,00.0,31.4,24.4,05.5,0000.0,0008.94,0006.88,0006.64
2022-03-10 19:07:00,,0823.2,5.00,0.00,22.6,22.0,00.0,31.4,24.4,05.6,0000.0,0009.06,0006.95,0006.68
2022-03-10 19:08:00,,0823.1,5.00,0.00,22.6,21.9,00.0,31.4,24.4,05.6,0000.0,0009.15,0006.99,0006.70
2022-03-10 19:09:00,,0823.1,5.01,0.00,22.6,21.9,00.0,31.5,24.4,05.5,0000.0,0009.19,0007.03,0006.73
2022-03-10 19:10:00,,0823.1,4.99,0.00,22.6,21.9,00.0,31.5,24.3,05.3,0000.0,0009.27,0007.07,0006.75
2022-03-10 19:11:00,,0823.1,5.00,0.00,22.6,21.9,00.0,31.5,24.3,05.2,0000.0,0009.56,0007.11,0006.77
2022-03-10 19:12:00,,0823.1,5.02,0.00,22.6,21.9,00.0,31.5,24.3,05.4,0000.0,0009.83,0007.12,0006.78
2022-03-10 19:13:00,,0823.1,4.99,0.00,22.5,21.8,00.0,31.5,24.3,05.2,0000.0,0009.91,0007.15,0006.79
2022-03-10 19:14:00,,0823.1,4.99,0.00,22.5,21.8,00.0,31.5,24.2,05.3,0000.0,0010.00,0007.17,0006.80
2022-03-10 19:15:00,,0823.1,5.00,0.00,22.5,21.7,00.0,31.4,24.2,05.2,0000.0,0010.02,0007.18,0006.80
2022-03-10 19:16:00,,0823.1,5.01,0.00,22.4,21.6,00.0,31.4,24.1,05.3,-000.2,0010.12,0007.21,0006.82
2022-03-10 19:17:00,,0823.1,5.00,0.00,22.4,21.6,00.0,31.4,24.1,05.3,0000.1,0010.25,0007.25,0006.83
2022-03-10 19:18:00,,0823.1,5.00,0.00,22.4,21.6,00.0,31.4,24.1,05.4,0000.1,0010.30,0007.25,0006.82
2022-03-10 19:19:00,,0823.1,5.01,0.00,22.3,21.5,00.0,31.4,24.0,05.7,0000.0,0010.23,0007.21,0006.81
2022-03-10 19:20:00,,0823.1,5.00,0.00,22.3,21.5,00.0,31.4,24.0,05.5,0000.0,0010.12,0007.16,0006.79
2022-03-10 19:21:00,,0823.0,4.99,0.00,22.3,21.5,00.0,31.4,24.0,05.5,0000.0,0010.08,0007.14,0006.77
2022-03-10 19:22:00,,0823.1,5.00,0.00,22.3,21.5,00.0,31.4,24.0,05.6,-000.3,0009.85,0007.12,0006.75
2022-03-10 19:23:00,,0823.0,5.00,0.00,22.3,21.4,00.0,31.3,24.0,05.7,-000.0,0009.56,0007.09,0006.73
2022-03-10 19:24:00,,0823.0,5.01,0.00,22.2,21.4,00.0,31.3,24.0,05.7,0000.0,0009.51,0007.07,0006.71
2022-03-10 19:25:00,,0823.0,4.99,0.00,22.2,21.4,00.0,31.3,24.0,05.6,0000.1,0009.39,0007.02,0006.69
2022-03-10 19:26:00,,0823.0,5.00,0.00,22.2,21.4,00.0,31.3,23.9,05.8,-000.3,0009.42,0007.03,0006.69
2022-03-10 19:27:00,,0822.9,5.00,0.00,22.2,21.4,00.0,31.3,23.9,05.6,-000.0,0009.33,0007.00,0006.66
2022-03-10 19:28:00,,0822.9,5.00,0.00,22.2,21.4,00.0,31.3,23.9,05.6,0000.0,0009.27,0006.99,0006.65
2022-03-10 19:29:00,,0822.9,4.99,0.00,22.2,21.4,00.0,31.2,23.9,05.5,0000.0,0009.13,0006.96,0006.64
2022-03-10 19:30:00,,0822.9,5.00,0.00,22.2,21.4,00.0,31.2,23.9,05.6,0000.0,0009.17,0006.98,0006.65
2022-03-10 19:31:00,,0822.9,5.00,0.00,22.2,21.4,00.0,31.2,23.9,05.7,-000.2,0009.25,0007.01,0006.67
2022-03-10 19:32:00,,0822.8,5.00,0.00,22.2,21.5,00.0,31.2,24.0,05.6,0000.0,0009.28,0007.02,0006.68
2022-03-10 19:33:00,,0822.7,5.00,0.00,22.2,21.5,00.0,31.2,24.0,05.9,0000.0,0009.27,0007.03,0006.70
2022-03-10 19:34:00,,0822.7,4.99,0.00,22.2,21.5,00.0,31.2,23.9,05.9,0000.0,0009.24,0007.04,0006.71
2022-03-10 19:35:00,,0822.8,5.02,0.00,22.2,21.4,00.0,31.2,23.9,05.7,0000.0,0009.21,0007.03,0006.73
2022-03-10 19:36:00,,0822.7,5.00,0.00,22.1,21.4,00.0,31.2,23.9,05.9,0000.0,0009.23,0007.05,0006.74
2022-03-10 19:37:00,,0822.8,5.00,0.00,22.1,21.4,00.0,31.2,23.9,05.8,0000.0,0009.19,0007.03,0006.74
2022-03-10 19:38:00,,0822.8,4.99,0.00,22.1,21.4,00.0,31.2,23.9,05.7,0000.0,0009.15,0007.03,0006.75
2022-03-10 19:39:00,,0822.7,4.99,0.00,22.1,21.4,00.0,31.2,23.8,05.7,0000.0,0009.12,0007.02,0006.76
2022-03-10 19:40:00,,0822.7,5.00,0.00,22.1,21.3,00.0,31.1,23.7,05.8,0000.0,0009.12,0007.01,0006.75
2022-03-10 19:41:00,,0822.7,5.01,0.00,22.0,21.2,00.0,31.1,23.7,05.5,0000.0,0009.09,0007.00,0006.74
2022-03-10 19:42:00,,0822.7,4.99,0.00,22.0,21.2,00.0,31.1,23.6,05.5,0000.0,0009.05,0007.00,0006.74
2022-03-10 19:43:00,,0822.6,5.01,0.00,22.0,21.1,00.0,31.1,23.6,05.5,0000.0,0008.99,0006.99,0006.75
2022-03-10 19:44:00,,0822.6,4.99,0.00,22.0,21.2,00.0,31.1,23.7,05.4,0000.0,0009.07,0007.00,0006.75
2022-03-10 19:45:00,,0822.6,4.99,0.00,22.0,21.2,00.0,31.1,23.7,05.5,0000.0,0009.14,0007.03,0006.75
2022-03-10 19:46:00,,0822.6,4.99,0.00,22.0,21.3,00.0,31.1,23.8,05.5,0000.0,0009.20,0007.04,0006.74
2022-03-10 19:47:00,,0822.6,5.01,0.00,22.0,21.4,00.0,31.1,23.8,05.4,0000.0,0009.27,0007.06,0006.73
2022-03-10 19:48:00,,0822.5,5.00,0.00,22.0,21.4,00.0,31.1,23.8,05.5,0000.0,0009.26,0007.06,0006.74
2022-03-10 19:49:00,,0822.6,4.99,0.00,22.0,21.4,00.0,31.1,23.8,05.6,0000.0,0009.22,0007.04,0006.72
2022-03-10 19:50:00,,0822.6,4.99,0.00,22.0,21.4,00.0,31.0,23.8,05.7,0000.0,0009.23,0007.04,0006.72
2022-03-10 19:51:00,,0822.6,5.00,0.00,22.1,21.4,00.0,31.0,23.9,05.6,0000.0,0009.22,0007.05,0006.73
2022-03-10 19:52:00,,0822.6,5.01,0.00,22.1,21.5,00.0,31.0,23.9,05.6,0000.0,0009.26,0007.09,0006.76
2022-03-10 19:53:00,,0822.5,5.00,0.00,22.1,21.5,00.0,31.1,24.0,05.8,0000.0,0009.32,0007.11,0006.77
2022-03-10 19:54:00,,0822.5,4.99,0.00,22.1,21.4,00.0,31.0,23.9,05.5,0000.0,0009.37,0007.13,0006.77
2022-03-10 19:55:00,,0822.5,5.00,0.00,22.1,21.4,00.0,31.0,23.8,05.5,0000.0,0009.40,0007.15,0006.79
2022-03-10 19:56:00,,0822.5,5.01,0.00,22.1,21.4,00.0,31.0,23.9,05.7,0000.0,0009.37,0007.16,0006.81
2022-03-10 19:57:00,,0822.6,4.99,0.00,22.1,21.4,00.0,31.0,23.9,05.8,0000.0,0009.35,0007.18,0006.84
2022-03-10 19:58:00,,0822.5,4.99,0.00,22.1,21.4,00.0,31.0,23.9,05.9,0000.0,0009.43,0007.23,0006.88
2022-03-10 19:59:00,,0822.5,4.99,0.00,22.1,21.4,00.0,31.0,23.8,05.7,0000.0,0009.78,0007.25,0006.90
